Location: Larrial
(48.2758°N, 4.5331°W)
Time: 06:27:07
(UTC+00:00)

SL-4 R/B - Pass Details

Date: 09 April 2020
Orbit: 428 x 666 km, 51.6° (Epoch: 29 May)

Event Time Altitude Azimuth Distance (km) Brightness Sun altitude
Rises 20:39:48 0° 268° (W) 2,393 6.3 -16.0°
Reaches altitude 10° 20:41:56 10° 274° (W) 1,525 5.2 -16.3°
Maximum altitude 20:45:16 50° 352° (N) 557 2.3 -16.7°
Enters shadow 20:47:16 22° 60° (ENE) 1,025 3.1 -17.0°
